• In Hungary
  • List of Countries
  • For 7 days
  • Water Temperature
  • Satellite Maps
  • Weather Map
  • News
  • Weather Widgets
  • user-avatar
    Login

    Hourly Weather Naftalan

    Today, 18 January, Thursday

    Time Temperature Precipitation Wind Pressure Humidity
    00:00 +3°C° 0 mm 2 mps 764 mmHg 80%
    01:00 +3°C° 0 mm 2 mps 764 mmHg 81%
    02:00 +3°C° 0 mm 2 mps 764 mmHg 81%
    03:00 +3°C° 0 mm 2 mps 763 mmHg 82%
    04:00 +3°C° 0 mm 2 mps 763 mmHg 81%
    05:00 +3°C° 0 mm 2 mps 763 mmHg 81%
    06:00 +3°C° 0 mm 2 mps 763 mmHg 80%
    07:00 +4°C° 0 mm 2 mps 763 mmHg 77%
    08:00 +4°C° 0 mm 2 mps 763 mmHg 74%
    09:00 +5°C° 0 mm 2 mps 763 mmHg 71%
    10:00 +6°C° 0 mm 2 mps 762 mmHg 68%
    11:00 +7°C° 0 mm 2 mps 762 mmHg 66%
    12:00 +9°C° 0 mm 2 mps 761 mmHg 63%
    13:00 +9°C° 0 mm 2 mps 761 mmHg 63%
    14:00 +9°C° 0 mm 2 mps 760 mmHg 64%
    15:00 +10°C° 0 mm 2 mps 759 mmHg 64%
    16:00 +9°C° 0 mm 2 mps 759 mmHg 67%
    17:00 +8°C° 0 mm 2 mps 759 mmHg 69%
    18:00 +7°C° 0 mm 2 mps 759 mmHg 72%
    19:00 +7°C° 0 mm 2 mps 759 mmHg 70%
    20:00 +7°C° 0 mm 3 mps 758 mmHg 69%
    21:00 +5°C° 0 mm 3 mps 758 mmHg 67%
    22:00 +5°C° 0 mm 3 mps 758 mmHg 65%
    23:00 +4°C° 0 mm 4 mps 758 mmHg 63%

    Tomorrow, 19 January, Friday

    Time Temperature Precipitation Wind Pressure Humidity
    00:00 +4°C° 0 mm 4 mps 758 mmHg 61%
    01:00 +4°C° 0 mm 4 mps 757 mmHg 60%
    02:00 +2°C° 0 mm 5 mps 757 mmHg 59%
    03:00 +2°C° 0 mm 5 mps 757 mmHg 58%
    04:00 +2°C° 0 mm 5 mps 757 mmHg 57%
    05:00 +2°C° 0 mm 5 mps 758 mmHg 57%
    06:00 +2°C° 0 mm 5 mps 758 mmHg 57%
    07:00 +3°C° 0 mm 5 mps 758 mmHg 54%
    08:00 +6°C° 0 mm 4 mps 758 mmHg 51%
    09:00 +7°C° 0 mm 4 mps 759 mmHg 48%
    10:00 +10°C° 0 mm 4 mps 759 mmHg 45%
    11:00 +11°C° 0 mm 4 mps 758 mmHg 41%
    12:00 +13°C° 0 mm 4 mps 758 mmHg 38%
    13:00 +14°C° 0 mm 3 mps 758 mmHg 38%
    14:00 +15°C° 0 mm 2 mps 758 mmHg 37%
    15:00 +15°C° 0 mm 2 mps 758 mmHg 37%
    16:00 +14°C° 0 mm 1 mps 759 mmHg 41%
    17:00 +12°C° 0 mm 1 mps 759 mmHg 45%
    18:00 +11°C° 0 mm 1 mps 760 mmHg 50%
    19:00 +10°C° 0 mm 1 mps 760 mmHg 52%
    20:00 +10°C° 0 mm 1 mps 760 mmHg 54%
    21:00 +9°C° 0 mm 1 mps 760 mmHg 56%
    22:00 +9°C° 0 mm 1 mps 761 mmHg 56%
    23:00 +8°C° 0 mm 2 mps 761 mmHg 56%

    Day after tomorrow, 20 January, Saturday

    Time Temperature Precipitation Wind Pressure Humidity
    00:00 +8°C° 0 mm 3 mps 761 mmHg 56%
    01:00 +7°C° 0 mm 4 mps 762 mmHg 60%
    02:00 +7°C° 0 mm 5 mps 762 mmHg 63%
    03:00 +7°C° 0 mm 6 mps 762 mmHg 67%
    04:00 +7°C° 0 mm 6 mps 763 mmHg 68%
    05:00 +7°C° 0 mm 6 mps 763 mmHg 70%
    06:00 +5°C° 0 mm 6 mps 764 mmHg 72%
    07:00 +7°C° 0 mm 6 mps 765 mmHg 70%
    08:00 +7°C° 0 mm 5 mps 766 mmHg 68%
    09:00 +8°C° 0 mm 5 mps 766 mmHg 66%
    10:00 +9°C° 0 mm 5 mps 767 mmHg 62%
    11:00 +10°C° 0 mm 5 mps 767 mmHg 57%
    12:00 +11°C° 0 mm 4 mps 767 mmHg 53%
    13:00 +12°C° 0 mm 4 mps 767 mmHg 52%
    14:00 +12°C° 0 mm 4 mps 767 mmHg 51%
    15:00 +12°C° 0 mm 4 mps 767 mmHg 50%
    16:00 +11°C° 0 mm 4 mps 768 mmHg 57%
    17:00 +10°C° 0 mm 4 mps 768 mmHg 64%
    18:00 +8°C° 0 mm 4 mps 769 mmHg 71%
    19:00 +8°C° 0 mm 4 mps 769 mmHg 74%
    20:00 +7°C° 0 mm 4 mps 769 mmHg 77%
    21:00 +7°C° 0 mm 4 mps 770 mmHg 80%
    22:00 +7°C° 0 mm 4 mps 769 mmHg 81%
    23:00 +6°C° 0 mm 4 mps 769 mmHg 82%

    21 January, Sunday

    Time Temperature Precipitation Wind Pressure Humidity
    00:00 +6°C° 0 mm 4 mps 769 mmHg 83%
    01:00 +6°C° 0 mm 4 mps 769 mmHg 81%
    02:00 +6°C° 0 mm 4 mps 769 mmHg 80%
    03:00 +6°C° 0 mm 4 mps 769 mmHg 79%
    04:00 +6°C° 0 mm 4 mps 769 mmHg 77%
    05:00 +6°C° 0 mm 4 mps 769 mmHg 76%
    06:00 +6°C° 0 mm 4 mps 769 mmHg 74%
    07:00 +7°C° 0 mm 3 mps 769 mmHg 71%
    08:00 +8°C° 0 mm 3 mps 769 mmHg 68%
    09:00 +9°C° 0 mm 3 mps 769 mmHg 65%
    10:00 +10°C° 0 mm 2 mps 769 mmHg 60%
    11:00 +12°C° 0 mm 2 mps 768 mmHg 55%
    12:00 +13°C° 0 mm 2 mps 768 mmHg 51%
    13:00 +14°C° 0 mm 2 mps 767 mmHg 49%
    14:00 +14°C° 0 mm 2 mps 767 mmHg 48%
    15:00 +14°C° 0 mm 3 mps 767 mmHg 47%
    16:00 +12°C° 0 mm 3 mps 767 mmHg 54%
    17:00 +11°C° 0 mm 3 mps 767 mmHg 61%
    18:00 +10°C° 0 mm 3 mps 767 mmHg 68%
    19:00 +8°C° 0 mm 4 mps 767 mmHg 70%
    20:00 +8°C° 0 mm 4 mps 767 mmHg 73%
    21:00 +8°C° 0 mm 4 mps 767 mmHg 75%
    22:00 +7°C° 0 mm 4 mps 766 mmHg 76%
    23:00 +7°C° 0 mm 4 mps 766 mmHg 77%

    22 January, Monday

    Time Temperature Precipitation Wind Pressure Humidity
    00:00 +8°C° 0 mm 3 mps 766 mmHg 78%
    01:00 +8°C° 0 mm 3 mps 766 mmHg 78%
    02:00 +7°C° 0 mm 3 mps 766 mmHg 78%
    03:00 +7°C° 0 mm 3 mps 765 mmHg 78%
    04:00 +7°C° 0 mm 3 mps 765 mmHg 78%
    05:00 +6°C° 0 mm 2 mps 765 mmHg 79%
    06:00 +6°C° 0 mm 2 mps 765 mmHg 79%
    07:00 +7°C° 0 mm 2 mps 765 mmHg 77%
    08:00 +8°C° 0 mm 2 mps 765 mmHg 75%
    09:00 +9°C° 0 mm 2 mps 765 mmHg 72%
    10:00 +10°C° 0 mm 2 mps 764 mmHg 69%
    11:00 +13°C° 0 mm 2 mps 763 mmHg 66%
    12:00 +13°C° 0 mm 3 mps 763 mmHg 62%
    13:00 +13°C° 0 mm 3 mps 762 mmHg 63%
    14:00 +13°C° 0 mm 3 mps 762 mmHg 63%
    15:00 +13°C° 0 mm 3 mps 761 mmHg 63%
    16:00 +12°C° 0 mm 3 mps 761 mmHg 70%
    17:00 +12°C° 0 mm 2 mps 761 mmHg 77%
    18:00 +10°C° 0 mm 2 mps 761 mmHg 84%
    19:00 +10°C° 0 mm 2 mps 760 mmHg 86%
    20:00 +9°C° 0 mm 2 mps 760 mmHg 87%
    21:00 +10°C° 0 mm 1 mps 760 mmHg 88%
    22:00 +9°C° 0 mm 2 mps 759 mmHg 87%
    23:00 +8°C° 0 mm 2 mps 759 mmHg 85%

    23 January, Tuesday

    Time Temperature Precipitation Wind Pressure Humidity
    00:00 +8°C° 0 mm 2 mps 758 mmHg 83%
    01:00 +8°C° 0 mm 3 mps 758 mmHg 78%
    02:00 +7°C° 0 mm 3 mps 758 mmHg 72%
    03:00 +7°C° 0 mm 3 mps 758 mmHg 67%
    04:00 +6°C° 0 mm 4 mps 758 mmHg 65%
    05:00 +6°C° 0 mm 4 mps 758 mmHg 63%
    06:00 +5°C° 0 mm 4 mps 758 mmHg 61%
    07:00 +7°C° 0 mm 4 mps 758 mmHg 56%
    08:00 +8°C° 0 mm 4 mps 758 mmHg 50%
    09:00 +10°C° 0 mm 4 mps 759 mmHg 45%
    10:00 +12°C° 0 mm 4 mps 759 mmHg 38%
    11:00 +14°C° 0 mm 4 mps 758 mmHg 31%
    12:00 +17°C° 0 mm 4 mps 758 mmHg 24%
    13:00 +17°C° 0 mm 3 mps 758 mmHg 24%
    14:00 +17°C° 0 mm 3 mps 758 mmHg 24%
    15:00 +17°C° 0 mm 3 mps 759 mmHg 24%
    16:00 +14°C° 0 mm 3 mps 759 mmHg 33%
    17:00 +12°C° 0 mm 3 mps 760 mmHg 42%
    18:00 +11°C° 0 mm 4 mps 761 mmHg 51%
    19:00 +10°C° 0 mm 3 mps 761 mmHg 56%
    20:00 +10°C° 0 mm 3 mps 761 mmHg 62%
    21:00 +9°C° 0 mm 3 mps 761 mmHg 67%
    22:00 +9°C° 0 mm 3 mps 762 mmHg 69%
    23:00 +9°C° 0 mm 3 mps 762 mmHg 71%
    Show more